Tracking 25709 objects as of 23-May-2022
HD Live streaming from Space Station
objects crossing your sky now

LEMUR-2-SUSURRUS

Track LEMUR-2-SUSURRUS now!
10-day predictions
LEMUR-2-SUSURRUS is classified as:


NORAD ID: 46502
Int'l Code: 2020-068S
Perigee: 548.6 km
Apogee: 567.2 km
Inclination: 97.7 °
Period: 95.7 minutes
Semi major axis: 6928 km
RCS: Unknown
Launch date: September 28, 2020
Source: United States (US)
Launch site: PLESETSK MISSILE AND SPACE COMPLEX (PKMTR)
aabbcc
Your satellite tracking list
Your tracking list is empty




NASA's NSSDC Master Catalog

Two Line Element Set (TLE):
1 46502U 20068S   22143.56569931  .00013527  00000-0  94845-3 0  9990
2 46502  97.7214  84.1217 0013376  27.0893 333.1121 15.05244664 90360
Source of the keplerian elements: AFSPC